Vertical_Velocity
-0 -1 -0 -1 -2 -2 -2 -2 -1 -1 -0 -0 -0 -0 0 0 1 1 2 4 3 2 0 -1 -2 -2 -2 -1 -1 -1 -1 -1 -0 -0 -0 -1 -1 -1 -0 0 1 1 2 1 1 1 1 1 1 1 1 1 1 0 0 0 0 -0 -0 -0 0 0 1 1 1 1 1 0 -0
-0 -0 -0 -1 -1 -2 -2 -2 -1 -1 -0 -0 -0 0 0 0 1 2 3 4 3 1 -0 -1 -2 -2 -2 -2 -2 -1 -1 -0 0 0 0 0 -0 -0 0 0 1 2 2 2 1 1 1 1 1 2 1 1 1 0 0 0 0 0 -0 -0 -0 0 0 1 1 1 1 1 0
0 -0 -1 -1 -2 -2 -3 -2 -1 -1 0 1 1 1 0 1 1 2 4 5 3 1 -0 -1 -2 -2 -3 -2 -2 -2 -1 -0 0 1 1 1 0 0 0 1 2 2 2 1 1 0 0 1 2 2 2 1 0 -0 -0 -0 -0 0 -0 -0 -0 0 1 1 0 0 1 1 1
0 -0 -1 -2 -3 -3 -3 -2 -0 0 1 1 1 1 1 0 1 3 4 6 4 2 1 -1 -2 -3 -3 -3 -3 -2 -2 -1 -0 0 1 1 1 1 1 1 2 3 3 2 1 0 0 1 1 2 2 1 0 -0 -1 -1 -0 -0 -0 -0 -0 0 1 1 0 0 1 1 1
-0 -1 -1 -2 -2 -2 -1 -0 1 2 2 2 1 1 1 0 1 3 5 6 5 3 2 0 -1 -3 -4 -4 -4 -3 -3 -2 -1 0 0 1 1 1 1 2 3 4 4 2 1 0 0 0 1 2 2 1 0 -1 -1 -1 -0 -0 -0 -0 0 1 1 1 0 0 0 0 0
0 0 0 0 0 -0 0 1 1 2 2 2 1 1 1 1 1 3 5 7 6 5 3 1 -0 -2 -4 -4 -4 -4 -4 -2 -1 -0 0 0 0 1 1 2 4 4 4 3 2 1 0 1 1 1 1 1 -0 -1 -1 -1 -0 -0 -0 0 1 1 1 1 1 1 0 0 0
1 1 1 2 1 -0 -1 -0 1 1 1 1 1 0 0 1 1 3 6 8 8 7 5 3 1 -1 -3 -4 -5 -5 -4 -3 -2 -1 -0 0 0 0 1 3 4 4 4 2 1 1 0 1 1 1 0 0 -0 -0 -0 0 0 0 0 1 1 1 1 1 1 1 1 0 0
2 1 1 1 0 -1 -1 -1 0 1 1 1 0 0 1 1 2 4 6 8 9 8 6 4 2 -0 -2 -4 -5 -5 -4 -3 -2 -1 -0 0 0 0 1 3 4 4 3 1 0 0 0 1 1 0 0 -0 0 0 0 1 1 0 0 1 1 1 1 1 1 1 1 1 1
1 1 1 1 -0 -1 -2 -1 -0 1 1 1 1 1 1 1 1 3 6 8 9 9 7 5 3 1 -1 -3 -4 -4 -4 -3 -2 -1 -0 -0 -0 0 1 3 4 3 2 0 -0 -0 -0 1 1 0 -0 -0 0 0 0 1 1 1 0 1 1 1 1 1 1 1 1 1 0
0 0 0 0 -1 -1 -2 -2 -0 1 2 2 2 2 1 0 1 2 5 7 10 10 8 6 4 2 -0 -2 -3 -4 -4 -3 -2 -1 -0 -0 -0 -0 1 3 4 3 1 -1 -1 -1 -1 0 0 0 -0 -0 0 0 0 1 1 1 0 0 1 1 1 1 1 1 0 0 -0
1 1 1 -0 -1 -1 -2 -2 -0 1 2 2 2 2 1 -0 1 2 5 8 10 11 9 8 5 3 1 -1 -2 -3 -3 -3 -2 -1 -1 -1 -1 -0 1 3 3 2 0 -2 -2 -2 -1 0 0 0 -0 0 0 0 0 0 1 1 0 0 0 1 1 1 1 0 0 -0 -0
3 3 2 1 0 -0 -1 -2 -1 1 2 2 1 1 0 -1 0 3 5 8 10 11 10 9 6 4 1 -0 -1 -2 -3 -2 -2 -1 -1 -1 -1 -1 0 2 2 1 -1 -2 -2 -2 -1 -0 -0 -0 -0 -0 0 1 1 0 0 0 0 0 1 1 1 1 0 -0 -0 -0 -0
4 3 2 2 1 -0 -1 -2 -1 0 1 1 1 1 -0 -1 0 2 5 7 10 12 12 10 7 4 2 0 -1 -1 -2 -2 -1 -1 -1 -1 -1 -1 0 1 1 -0 -1 -2 -2 -1 -1 -0 -0 -0 -0 -0 0 0 1 0 0 0 0 1 1 2 2 1 0 0 0 0 -0
4 3 2 1 1 -0 -1 -2 -1 -0 1 1 1 0 -0 -1 0 2 4 5 9 11 12 10 8 5 3 1 -0 -1 -2 -2 -2 -1 -1 -1 -1 -1 0 1 0 -1 -2 -2 -1 -1 -0 -0 -0 -0 -0 -0 0 0 0 1 0 0 -0 -0 -0 0 0 0 0 1 1 1 1
4 3 2 1 0 -1 -2 -2 -2 -1 -0 1 1 0 -0 -1 -0 1 3 5 8 10 12 11 9 6 4 1 -0 -1 -2 -2 -2 -1 -1 -1 -1 -0 0 0 -1 -1 -1 -1 -1 -1 -0 -0 -0 -0 -0 -0 -0 0 0 1 1 0 -0 -1 -1 -1 -1 -1 -0 0 1 1 1
3 2 2 1 0 -1 -2 -2 -2 -2 -1 -1 -0 -0 -1 -2 -1 1 3 4 7 10 11 12 10 7 4 2 -0 -1 -2 -3 -3 -2 -1 -1 -0 -0 -0 -0 -1 -1 -1 -1 -1 -0 -0 -0 -0 -0 -0 -0 -0 -0 0 1 1 0 -0 -1 -1 -1 -1 -1 -1 -1 -1 -1 -1
2 2 1 1 -0 -1 -2 -2 -2 -2 -2 -2 -1 -1 -1 -2 -1 1 2 4 7 10 11 12 11 8 5 2 -0 -2 -3 -4 -3 -2 -1 -1 -0 -0 -0 -1 -1 -1 -1 -0 -0 -0 -0 0 -0 -0 -0 -1 -0 -0 0 0 0 0 -0 -1 -1 -1 -1 -1 -1 -1 -2 -2 -1
2 1 1 1 -0 -0 -1 -1 -1 -2 -2 -1 -1 -1 -1 -2 -1 0 3 5 8 10 11 12 11 9 6 2 -1 -2 -3 -4 -4 -3 -2 -0 -0 -0 -1 -1 -2 -1 -0 -0 -0 -0 0 0 0 -0 -0 -0 -0 -0 0 0 0 -0 -1 -1 -1 -1 -1 -1 -1 -1 -1 -0 0
2 1 1 1 0 0 0 0 -0 -0 -1 -0 -1 -1 -1 -2 -1 1 4 8 9 10 11 12 12 9 6 2 -1 -2 -3 -4 -4 -4 -2 -1 -0 -0 -1 -1 -1 -1 -0 -0 -0 0 0 0 0 0 -0 -0 -0 -0 0 0 0 0 -0 -0 -0 -0 -0 -1 -1 -1 -0 -0 -0
2 2 1 1 1 2 2 2 2 1 1 1 -0 -1 -1 -3 -1 3 7 10 10 10 11 12 11 9 6 2 -1 -2 -4 -4 -4 -4 -3 -1 -1 -1 -1 -1 -1 -0 -0 -0 0 0 0 0 0 0 -0 -0 -0 -0 -0 0 0 0 0 0 0 -0 -0 -0 -0 -0 -0 -1 -0
3 2 2 2 3 3 4 4 4 4 3 2 -0 -2 -2 -2 1 5 9 11 10 11 12 12 11 9 5 2 -1 -3 -4 -5 -5 -5 -4 -2 -1 -1 -1 -0 -0 -1 -1 -0 0 0 1 1 0 0 -0 -0 -0 -1 -1 -1 -1 -1 -1 -1 -1 -1 -0 -0 -0 -0 -0 -1 -1
4 4 4 4 4 4 5 6 6 5 3 1 -1 -2 -2 -0 4 8 10 11 10 10 11 11 10 8 5 1 -1 -4 -5 -6 -6 -6 -5 -4 -2 -1 -0 0 -0 -1 -1 -0 0 1 1 1 0 0 -0 -0 -0 -1 -1 -1 -2 -2 -2 -2 -1 -1 -1 -0 -0 -0 -1 -1 -0
5 5 5 4 4 4 5 6 6 4 2 1 -1 -2 -1 2 6 9 10 10 9 10 10 10 9 7 4 0 -2 -4 -6 -6 -7 -7 -6 -4 -2 -0 0 -0 -1 -1 -1 0 1 1 1 1 1 0 0 0 -0 -1 -1 -1 -1 -1 -2 -2 -1 -1 -0 -0 -0 -0 -1 -1 -0
6 6 5 4 3 4 4 4 4 3 1 0 -1 -1 1 4 8 9 10 9 9 9 9 9 8 6 3 -0 -2 -4 -6 -6 -7 -8 -7 -5 -2 -1 -0 -1 -1 -0 0 1 1 2 1 1 1 0 0 0 0 -1 -1 -1 -1 -1 -1 -1 -0 -0 0 0 -0 -0 -1 -1 -0
6 6 5 4 3 2 2 2 1 1 0 -0 -1 0 3 6 8 9 9 9 9 9 9 8 6 4 2 0 -2 -4 -6 -7 -8 -8 -7 -5 -3 -2 -2 -1 -1 -0 1 2 2 2 2 1 1 1 1 1 0 -0 -1 -1 -1 -1 -1 -1 -0 0 0 0 -0 -0 -0 -0 -0
6 5 5 4 3 2 1 0 0 0 0 0 0 2 4 7 8 8 8 8 8 8 8 6 5 3 2 0 -2 -4 -6 -8 -8 -7 -6 -4 -3 -3 -2 -2 -1 0 2 3 2 2 1 1 1 1 1 1 0 -0 -1 -1 -1 -1 -1 -0 -0 -0 -0 -0 -0 -1 -1 -0 -0
6 5 4 4 3 2 1 -0 -0 0 0 0 1 3 5 7 8 8 8 8 8 7 6 5 3 2 1 -0 -2 -5 -7 -9 -8 -6 -4 -3 -3 -3 -3 -2 -0 1 2 3 2 1 1 1 1 2 2 1 0 -0 -1 -1 -1 -1 -0 -0 -0 -0 -0 -0 -1 -1 -1 -0 -0
6 5 5 4 4 3 2 1 0 -0 -1 -0 1 3 5 7 7 8 7 7 6 6 4 3 2 1 0 -1 -4 -6 -7 -8 -6 -5 -4 -3 -3 -3 -2 -1 0 2 3 3 1 1 1 2 2 2 2 1 0 -0 -1 -1 -0 -0 -0 -0 -0 -0 -1 -1 -1 -1 -1 -0 0
6 6 5 4 4 4 3 2 0 -1 -1 -0 2 4 5 6 6 6 6 6 5 4 3 2 1 1 -0 -2 -5 -6 -6 -6 -5 -4 -3 -3 -3 -2 -1 -0 1 2 3 3 1 0 0 2 2 2 1 1 -0 -1 -1 -0 0 0 -0 -0 -0 -1 -1 -1 -1 -1 -1 -0 0
7 6 5 4 5 5 4 4 2 0 -0 0 1 3 4 5 6 6 6 6 5 4 3 2 2 1 -1 -3 -4 -5 -5 -5 -4 -3 -2 -2 -2 -1 -1 0 1 2 2 3 1 -0 0 1 2 2 1 0 -1 -1 -0 -0 -0 -0 -0 -0 -1 -1 -1 -1 -1 -1 -0 -0 0
7 7 6 6 5 5 5 5 4 2 1 0 1 1 2 4 5 6 6 6 5 4 3 3 2 0 -1 -3 -3 -4 -4 -4 -3 -2 -2 -1 -1 -1 -0 0 1 2 2 2 0 -1 -1 1 1 1 1 -0 -0 -0 -0 0 0 -0 -0 -0 -1 -1 -1 -1 -1 -1 -0 -0 -0
6 7 7 6 6 5 5 5 4 3 2 2 1 1 2 3 4 5 5 5 4 4 3 2 1 -0 -1 -2 -3 -3 -3 -3 -2 -2 -1 -1 -0 -0 -0 0 1 2 2 2 0 -1 -1 0 1 1 0 -0 -0 -0 0 0 0 0 -0 -0 -0 -0 -0 -1 -1 -1 -0 -1 -1
5 6 6 6 6 5 5 4 4 4 4 3 2 2 2 3 3 4 4 3 3 3 2 1 0 -0 -1 -1 -2 -2 -2 -2 -2 -1 -1 -0 -0 -0 -0 0 1 1 2 2 1 0 0 1 1 0 -0 -0 0 0 0 0 0 0 0 0 0 0 -0 -0 -0 -0 -0 -1 -1
1 4 5 6 5 5 4 4 4 4 4 4 3 3 3 3 3 3 2 2 2 2 2 1 1 1 0 -0 -1 -1 -2 -2 -1 -1 -1 -0 -0 -0 0 1 1 2 2 2 1 1 1 1 1 -0 -1 -0 0 0 -0 0 0 0 0 0 1 0 -0 -1 -1 -1 -0 -0 -1
-2 2 4 5 4 4 3 4 4 4 4 4 3 3 3 3 3 3 3 3 3 3 2 1 1 1 1 -0 -1 -2 -2 -1 -1 -1 -0 -0 -0 0 1 1 2 2 2 2 2 2 2 2 0 -1 -1 -0 -1 -0 1 1 1 0 1 1 0 -0 -1 -1 -1 -0 -0 -0 -1
-6 -0 3 4 3 3 3 3 4 4 4 4 4 3 3 3 3 3 4 4 3 2 1 1 1 1 0 -1 -2 -2 -1 -1 -0 -0 0 0 0 1 1 1 2 2 2 2 2 3 3 2 0 -1 -1 -1 -1 -0 1 1 1 1 1 0 -1 -1 -1 -1 -0 -0 -0 -1 -1
-10 -4 2 4 3 3 3 3 4 4 4 4 4 4 4 4 4 4 3 3 2 1 1 1 1 1 -0 -2 -2 -1 -0 0 0 1 0 0 1 1 1 2 2 2 2 3 3 3 3 2 0 -1 -2 -1 -1 0 1 1 1 0 -0 -1 -1 -1 -1 -0 -0 -0 -1 -1 -1
-16 -10 -3 2 3 3 3 3 4 4 4 4 5 5 4 4 3 3 3 2 1 1 1 1 1 0 -1 -1 -0 0 1 1 1 1 1 1 1 2 2 2 2 2 2 3 4 4 3 2 -0 -1 -2 -2 -1 0 1 0 0 -1 -1 -1 -1 -1 -0 -0 -0 -0 -1 -1 -1
-18 -16 -10 -3 -0 0 0 1 3 4 4 4 5 5 4 3 2 2 2 1 1 1 1 1 0 -1 -1 -0 0 1 1 1 1 1 1 1 2 2 2 1 1 2 3 4 4 4 3 1 -1 -2 -3 -2 -1 0 0 -0 -1 -1 -2 -1 -0 -0 -0 -0 -0 -1 -1 -2 -1
-14 -16 -14 -8 -5 -3 -2 -1 0 1 2 3 4 4 3 2 2 1 1 0 0 -0 -1 -1 -1 -1 -1 -0 0 0 0 0 0 1 1 2 2 2 2 0 1 2 3 4 4 4 2 0 -2 -3 -3 -2 -0 -0 -0 -1 -2 -2 -1 -1 0 0 -0 -0 -1 -1 -1 -2 -1
-5 -10 -12 -12 -8 -6 -4 -3 -2 -1 1 3 3 3 3 2 1 1 -0 -1 -1 -2 -2 -2 -2 -1 -1 -0 0 0 1 1 1 2 3 3 3 2 0 -0 1 2 4 4 4 3 1 -1 -3 -4 -2 -1 -0 -1 -1 -2 -2 -2 -1 -0 0 0 -0 -1 -1 -1 -1 -1 -1
Height
3058 3059 3060 3061 3063 3064 3065 3067 3069 3070 3072 3073 3075 3076 3077 3079 3080 3081 3082 3083 3084 3085 3085 3086 3087 3088 3090 3090 3091 3092 3093 3094 3094 3095 3095 3096 3096 3097 3097 3098 3098 3098 3099 3099 3099 3099 3099 3099 3099 3099 3099 3099 3099 3098 3098 3098 3098 3098 3098 3098 3098 3098 3098 3098 3098 3098 3098 3097 3097
3057 3058 3060 3060 3062 3063 3065 3066 3068 3070 3071 3072 3074 3075 3077 3078 3079 3080 3082 3083 3084 3084 3085 3086 3087 3088 3089 3090 3090 3091 3092 3093 3094 3094 3095 3095 3096 3096 3097 3097 3097 3098 3098 3098 3098 3098 3099 3098 3098 3098 3098 3098 3097 3097 3097 3097 3097 3097 3097 3097 3097 3097 3097 3097 3097 3096 3096 3096 3096
3056 3057 3059 3060 3061 3063 3064 3066 3067 3069 3070 3072 3073 3075 3076 3077 3079 3080 3081 3082 3083 3084 3085 3085 3086 3087 3088 3089 3090 3090 3091 3092 3093 3094 3094 3095 3095 3096 3096 3096 3097 3097 3097 3097 3097 3098 3098 3097 3097 3097 3097 3096 3096 3096 3096 3095 3095 3095 3095 3095 3096 3096 3096 3095 3095 3095 3095 3095 3095
3055 3056 3058 3059 3060 3062 3064 3065 3067 3068 3070 3071 3073 3074 3075 3077 3078 3079 3080 3081 3082 3083 3084 3085 3085 3086 3087 3088 3089 3090 3090 3091 3092 3093 3094 3094 3095 3095 3095 3095 3096 3096 3096 3096 3096 3096 3096 3096 3096 3096 3096 3095 3095 3095 3095 3095 3095 3095 3095 3095 3095 3095 3095 3094 3094 3094 3094 3094 3094
3055 3056 3057 3058 3060 3061 3063 3065 3066 3068 3069 3071 3072 3073 3075 3076 3077 3079 3080 3081 3082 3083 3083 3084 3085 3085 3086 3087 3088 3089 3090 3090 3091 3092 3093 3093 3094 3094 3095 3095 3095 3095 3095 3095 3095 3095 3095 3095 3095 3095 3095 3094 3094 3094 3093 3093 3093 3093 3093 3094 3093 3093 3093 3093 3093 3093 3093 3092 3092
3054 3055 3056 3057 3059 3061 3062 3064 3065 3067 3069 3070 3071 3072 3074 3075 3076 3078 3079 3080 3081 3082 3083 3084 3084 3085 3085 3086 3087 3088 3089 3090 3090 3091 3091 3092 3093 3093 3094 3094 3094 3094 3094 3095 3095 3095 3094 3094 3094 3094 3093 3093 3093 3092 3092 3092 3092 3092 3092 3092 3092 3092 3092 3092 3091 3091 3091 3091 3091
3053 3054 3055 3056 3058 3060 3061 3063 3065 3066 3067 3069 3070 3072 3073 3075 3076 3077 3079 3080 3081 3082 3082 3083 3084 3084 3085 3085 3086 3087 3088 3089 3089 3090 3090 3091 3092 3092 3093 3093 3093 3093 3093 3093 3093 3093 3093 3093 3093 3092 3092 3092 3092 3091 3091 3091 3091 3091 3091 3091 3091 3091 3091 3090 3090 3090 3090 3090 3090
3051 3053 3054 3055 3057 3059 3060 3062 3063 3065 3066 3068 3070 3071 3072 3074 3075 3076 3078 3079 3080 3081 3082 3082 3083 3083 3084 3085 3085 3086 3087 3088 3088 3089 3090 3090 3090 3091 3091 3092 3092 3092 3092 3092 3092 3092 3092 3092 3091 3091 3091 3091 3090 3090 3090 3090 3090 3090 3090 3090 3090 3090 3090 3089 3089 3089 3089 3089 3088
3050 3051 3053 3054 3056 3057 3059 3061 3062 3064 3065 3067 3069 3070 3071 3073 3074 3075 3076 3078 3079 3080 3081 3081 3082 3082 3083 3084 3084 3085 3086 3087 3087 3088 3088 3089 3090 3090 3090 3090 3091 3091 3091 3091 3091 3091 3091 3090 3090 3090 3090 3090 3090 3089 3089 3089 3089 3089 3089 3089 3089 3088 3088 3088 3088 3088 3088 3088 3087
3049 3050 3051 3053 3055 3056 3058 3060 3061 3063 3065 3066 3068 3069 3070 3071 3072 3074 3075 3077 3078 3079 3080 3080 3081 3081 3082 3083 3083 3084 3085 3085 3086 3087 3087 3088 3088 3089 3089 3089 3089 3090 3090 3090 3090 3090 3090 3089 3089 3089 3089 3089 3088 3088 3088 3088 3088 3088 3088 3088 3087 3087 3087 3087 3087 3087 3086 3086 3086
3048 3049 3050 3052 3053 3055 3056 3058 3060 3062 3063 3065 3066 3067 3069 3070 3071 3072 3074 3075 3077 3078 3079 3080 3080 3080 3081 3081 3082 3083 3084 3085 3085 3085 3086 3086 3087 3087 3088 3088 3088 3088 3088 3088 3088 3088 3088 3088 3088 3088 3088 3087 3087 3087 3087 3087 3087 3087 3086 3086 3086 3086 3086 3086 3086 3085 3085 3085 3085
3046 3048 3049 3050 3052 3054 3055 3057 3059 3060 3062 3063 3065 3066 3067 3068 3070 3071 3072 3074 3076 3077 3078 3079 3079 3079 3080 3080 3081 3082 3083 3084 3084 3085 3085 3085 3086 3086 3086 3087 3087 3087 3087 3087 3087 3087 3087 3087 3086 3086 3086 3086 3086 3086 3086 3086 3086 3085 3085 3085 3085 3085 3085 3085 3085 3085 3085 3085 3085
3045 3046 3048 3049 3050 3052 3054 3055 3057 3059 3060 3062 3063 3065 3066 3067 3068 3070 3071 3073 3074 3075 3076 3077 3078 3078 3079 3079 3080 3081 3082 3082 3083 3083 3084 3084 3085 3085 3085 3085 3086 3086 3086 3086 3086 3086 3085 3085 3085 3085 3085 3085 3085 3085 3085 3085 3085 3084 3084 3084 3084 3084 3084 3084 3084 3084 3084 3084 3083
3043 3045 3046 3047 3049 3050 3052 3054 3055 3057 3059 3060 3062 3063 3065 3065 3067 3068 3070 3071 3073 3074 3075 3076 3076 3077 3077 3078 3079 3080 3080 3081 3081 3082 3082 3083 3083 3084 3084 3084 3085 3085 3085 3085 3085 3085 3085 3084 3084 3084 3084 3084 3084 3084 3084 3084 3083 3083 3083 3083 3083 3083 3083 3082 3082 3082 3082 3082 3082
3041 3043 3044 3046 3047 3049 3050 3052 3054 3056 3057 3059 3060 3062 3063 3064 3065 3067 3068 3070 3071 3072 3074 3074 3075 3075 3076 3077 3077 3078 3079 3080 3080 3081 3081 3081 3082 3082 3083 3083 3083 3083 3083 3083 3084 3083 3083 3083 3083 3083 3083 3083 3083 3083 3083 3082 3082 3082 3082 3082 3082 3082 3081 3081 3081 3081 3081 3081 3081
3040 3041 3043 3044 3046 3047 3049 3051 3053 3054 3056 3057 3059 3060 3062 3063 3064 3065 3067 3068 3070 3071 3072 3073 3073 3074 3074 3075 3076 3077 3078 3078 3079 3080 3080 3080 3081 3081 3081 3082 3082 3082 3082 3082 3082 3082 3082 3082 3082 3082 3082 3082 3082 3081 3081 3081 3081 3081 3081 3081 3081 3080 3080 3080 3080 3080 3080 3080 3080
3038 3040 3041 3043 3044 3046 3048 3050 3051 3053 3055 3056 3058 3059 3060 3062 3063 3064 3065 3067 3069 3070 3070 3071 3071 3072 3073 3073 3074 3075 3076 3077 3078 3078 3079 3079 3079 3080 3080 3080 3080 3081 3081 3081 3081 3081 3081 3081 3081 3081 3081 3080 3080 3080 3080 3080 3080 3080 3080 3080 3080 3080 3079 3079 3079 3079 3079 3079 3079
3036 3038 3040 3041 3043 3045 3046 3048 3050 3052 3053 3055 3056 3058 3059 3060 3062 3063 3065 3066 3067 3068 3069 3069 3070 3070 3071 3071 3072 3074 3075 3075 3076 3077 3077 3078 3078 3078 3079 3079 3080 3080 3080 3080 3080 3080 3080 3080 3080 3080 3080 3079 3079 3079 3079 3079 3079 3079 3079 3079 3079 3079 3078 3078 3078 3078 3078 3078 3078
3035 3036 3038 3040 3042 3044 3045 3047 3049 3050 3052 3054 3055 3056 3058 3059 3060 3062 3063 3065 3066 3067 3067 3068 3068 3068 3069 3070 3070 3072 3073 3074 3075 3075 3076 3076 3077 3077 3077 3078 3078 3078 3079 3078 3078 3078 3078 3078 3078 3078 3078 3078 3078 3078 3078 3078 3078 3078 3078 3078 3077 3077 3077 3077 3077 3077 3077 3077 3077
3033 3035 3037 3039 3041 3042 3044 3046 3047 3049 3051 3052 3054 3055 3056 3058 3059 3060 3062 3063 3064 3065 3065 3066 3066 3066 3067 3067 3068 3070 3071 3072 3073 3074 3075 3075 3075 3076 3076 3076 3077 3077 3077 3077 3077 3077 3077 3077 3077 3077 3077 3077 3077 3077 3077 3077 3077 3077 3077 3076 3076 3076 3076 3076 3076 3076 3076 3076 3076
3032 3034 3035 3038 3040 3041 3043 3045 3046 3048 3049 3050 3052 3053 3055 3056 3058 3059 3060 3062 3063 3063 3063 3064 3064 3064 3065 3065 3066 3068 3069 3070 3072 3073 3073 3074 3074 3074 3075 3075 3075 3075 3076 3076 3075 3075 3075 3075 3075 3075 3075 3076 3075 3075 3075 3075 3075 3075 3075 3075 3075 3075 3075 3075 3075 3075 3075 3076 3076
3030 3032 3034 3036 3038 3040 3041 3043 3044 3046 3047 3048 3050 3051 3053 3055 3056 3058 3059 3060 3060 3061 3061 3062 3062 3062 3063 3063 3064 3066 3067 3069 3070 3071 3072 3072 3073 3073 3074 3074 3074 3074 3074 3074 3074 3074 3074 3074 3074 3074 3074 3075 3075 3075 3074 3074 3074 3074 3074 3074 3074 3074 3074 3074 3075 3075 3075 3075 3075
3029 3031 3033 3034 3036 3038 3039 3041 3042 3044 3045 3046 3048 3050 3051 3053 3055 3056 3057 3058 3059 3059 3060 3060 3060 3060 3061 3061 3062 3064 3065 3067 3069 3070 3070 3071 3071 3072 3072 3072 3072 3072 3073 3073 3073 3073 3073 3073 3073 3073 3073 3073 3073 3073 3073 3073 3073 3073 3073 3073 3073 3073 3073 3073 3074 3074 3074 3074 3074
3028 3029 3031 3032 3034 3036 3037 3039 3040 3041 3043 3045 3046 3048 3050 3051 3053 3054 3055 3056 3057 3057 3058 3058 3058 3058 3059 3060 3061 3062 3064 3065 3067 3068 3069 3070 3070 3070 3071 3071 3071 3071 3071 3071 3071 3071 3071 3071 3072 3072 3072 3072 3072 3072 3072 3072 3072 3072 3072 3072 3072 3072 3072 3073 3073 3073 3073 3074 3074
3026 3027 3029 3030 3032 3034 3035 3036 3038 3040 3041 3043 3045 3046 3048 3050 3051 3052 3053 3054 3055 3055 3056 3056 3056 3056 3057 3058 3059 3060 3062 3064 3065 3066 3068 3068 3069 3069 3069 3069 3069 3070 3070 3070 3070 3070 3070 3070 3070 3070 3070 3071 3071 3071 3071 3071 3071 3071 3071 3071 3071 3071 3071 3072 3072 3072 3073 3073 3073
3024 3025 3027 3028 3030 3031 3033 3035 3036 3038 3040 3041 3043 3045 3046 3048 3049 3050 3051 3052 3053 3053 3053 3054 3054 3054 3055 3056 3057 3059 3060 3062 3064 3065 3066 3067 3067 3067 3067 3068 3068 3068 3068 3068 3068 3069 3069 3069 3069 3069 3070 3070 3070 3070 3070 3070 3070 3070 3070 3070 3070 3070 3071 3071 3071 3072 3072 3072 3072
3022 3023 3025 3026 3028 3030 3031 3033 3035 3036 3038 3039 3041 3043 3045 3046 3047 3048 3049 3050 3050 3051 3051 3051 3052 3052 3053 3054 3055 3057 3059 3060 3062 3064 3065 3065 3065 3065 3066 3066 3066 3066 3066 3067 3067 3067 3068 3068 3068 3068 3068 3069 3069 3069 3069 3069 3070 3070 3070 3070 3070 3070 3070 3070 3070 3071 3071 3071 3071
3020 3021 3023 3025 3026 3028 3030 3031 3033 3035 3036 3038 3039 3041 3042 3044 3045 3046 3047 3048 3048 3049 3049 3049 3050 3050 3051 3052 3054 3055 3057 3059 3060 3062 3062 3063 3063 3064 3064 3064 3064 3065 3065 3065 3066 3066 3066 3066 3066 3067 3067 3067 3068 3068 3068 3068 3068 3069 3069 3069 3069 3069 3069 3070 3070 3070 3070 3070 3070
3018 3020 3021 3023 3024 3026 3028 3030 3031 3033 3035 3036 3038 3039 3040 3041 3043 3044 3045 3045 3046 3046 3047 3047 3048 3049 3050 3051 3052 3054 3056 3057 3059 3060 3060 3061 3061 3062 3062 3062 3063 3063 3063 3064 3065 3065 3065 3065 3065 3065 3066 3066 3067 3067 3067 3067 3067 3067 3068 3068 3068 3068 3069 3069 3069 3070 3070 3070 3070
3017 3018 3020 3021 3023 3024 3026 3028 3029 3031 3033 3034 3035 3037 3038 3039 3040 3041 3042 3043 3044 3044 3045 3045 3046 3047 3048 3049 3050 3052 3054 3055 3056 3057 3058 3059 3059 3060 3060 3060 3061 3061 3062 3062 3063 3064 3064 3064 3064 3065 3065 3065 3065 3066 3066 3066 3066 3066 3067 3067 3067 3067 3068 3068 3069 3069 3069 3069 3069
3015 3016 3018 3019 3021 3022 3024 3025 3027 3029 3030 3032 3033 3035 3036 3037 3038 3039 3040 3040 3041 3042 3042 3043 3044 3045 3046 3047 3049 3050 3052 3053 3054 3055 3056 3057 3057 3058 3058 3059 3060 3060 3060 3061 3062 3062 3063 3063 3063 3063 3064 3064 3065 3065 3065 3065 3065 3065 3066 3066 3066 3067 3067 3067 3068 3068 3068 3068 3068
3013 3015 3016 3018 3019 3020 3022 3023 3025 3026 3028 3030 3031 3032 3034 3035 3036 3037 3037 3038 3039 3039 3040 3041 3042 3043 3044 3045 3047 3048 3050 3051 3052 3053 3054 3055 3055 3056 3057 3057 3058 3059 3059 3060 3060 3061 3061 3061 3062 3062 3063 3063 3064 3064 3064 3064 3064 3065 3065 3065 3065 3066 3066 3067 3067 3067 3067 3067 3067
3011 3013 3015 3016 3017 3019 3020 3021 3023 3024 3026 3027 3029 3030 3031 3033 3034 3034 3035 3035 3036 3037 3038 3039 3040 3041 3042 3043 3045 3046 3048 3049 3050 3051 3052 3053 3053 3054 3055 3056 3056 3057 3058 3058 3059 3060 3060 3060 3061 3061 3062 3062 3062 3063 3063 3063 3063 3064 3064 3065 3065 3065 3066 3066 3066 3067 3067 3066 3066
3010 3011 3013 3014 3015 3017 3018 3020 3021 3022 3024 3025 3026 3028 3029 3030 3031 3032 3033 3033 3034 3035 3036 3037 3038 3039 3040 3042 3043 3045 3046 3047 3048 3049 3050 3051 3052 3053 3053 3054 3055 3056 3056 3057 3057 3058 3058 3059 3060 3060 3061 3061 3061 3061 3061 3062 3062 3063 3063 3064 3064 3065 3065 3066 3066 3066 3065 3065 3065
3008 3010 3011 3013 3014 3015 3017 3018 3020 3021 3022 3023 3024 3025 3026 3027 3028 3030 3030 3031 3032 3033 3034 3035 3036 3038 3039 3040 3042 3043 3044 3045 3046 3048 3049 3050 3050 3051 3052 3053 3054 3054 3055 3055 3056 3056 3057 3058 3058 3059 3060 3060 3060 3060 3061 3061 3061 3062 3063 3063 3064 3064 3065 3065 3065 3065 3065 3064 3064
3007 3008 3010 3011 3013 3014 3016 3017 3018 3019 3020 3021 3022 3023 3024 3025 3026 3027 3028 3029 3030 3031 3032 3033 3035 3036 3037 3039 3040 3041 3043 3044 3045 3046 3047 3048 3049 3050 3050 3051 3052 3053 3054 3054 3055 3055 3056 3056 3057 3058 3059 3059 3059 3059 3060 3060 3061 3061 3062 3063 3063 3064 3064 3064 3064 3064 3064 3063 3063
3005 3007 3008 3010 3011 3013 3014 3016 3017 3018 3019 3020 3020 3021 3022 3023 3024 3025 3026 3027 3028 3029 3030 3032 3033 3035 3036 3037 3039 3040 3041 3042 3043 3044 3045 3046 3047 3048 3049 3050 3051 3052 3052 3053 3053 3054 3055 3056 3057 3057 3058 3058 3058 3058 3059 3060 3060 3061 3061 3062 3063 3063 3063 3063 3063 3063 3063 3062 3062
3005 3005 3007 3008 3010 3011 3013 3014 3015 3016 3017 3018 3019 3020 3021 3022 3023 3023 3024 3025 3026 3028 3029 3031 3032 3034 3035 3036 3038 3039 3040 3041 3042 3043 3044 3045 3046 3047 3048 3049 3050 3050 3051 3051 3052 3053 3054 3055 3056 3056 3057 3057 3057 3058 3058 3059 3060 3060 3061 3061 3062 3062 3063 3062 3062 3062 3062 3061 3061
3003 3004 3005 3006 3008 3009 3010 3012 3014 3015 3016 3017 3017 3018 3019 3020 3021 3022 3023 3024 3025 3027 3028 3030 3031 3032 3034 3035 3036 3038 3039 3040 3040 3041 3043 3043 3044 3045 3046 3047 3048 3049 3050 3050 3051 3052 3053 3054 3055 3055 3055 3056 3056 3057 3058 3058 3059 3060 3060 3061 3061 3061 3061 3061 3061 3061 3061 3060 3060
3001 3003 3004 3005 3005 3007 3008 3010 3011 3013 3014 3015 3016 3017 3018 3018 3019 3020 3021 3023 3024 3026 3027 3029 3030 3031 3033 3034 3035 3036 3037 3038 3039 3040 3041 3042 3043 3044 3045 3046 3047 3048 3048 3049 3050 3051 3052 3053 3053 3054 3054 3055 3055 3056 3057 3057 3058 3059 3060 3060 3060 3060 3060 3060 3060 3060 3060 3059 3059
2999 3001 3002 3003 3004 3005 3006 3008 3010 3011 3012 3013 3014 3015 3016 3017 3018 3019 3020 3021 3023 3025 3026 3028 3029 3030 3031 3032 3033 3034 3035 3036 3038 3039 3040 3041 3042 3042 3043 3044 3045 3046 3047 3048 3049 3050 3051 3052 3052 3052 3053 3054 3055 3055 3056 3057 3057 3058 3059 3059 3059 3059 3059 3059 3059 3059 3059 3058 3058